Date,TemperatureHighF,TemperatureAvgF,TemperatureLowF,DewpointHighF,DewpointAvgF,DewpointLowF,HumidityHigh,HumidityAvg,HumidityLow,PressureMaxIn,PressureMinIn,WindSpeedMaxMPH,WindSpeedAvgMPH,GustSpeedMaxMPH,PrecipitationSumIn
2013-6-1,83.2,68.0,55.5,38.0,20.2,14.0,50,17,10,29.89,29.76,9,2,16,0.00
2013-6-2,83.1,68.3,51.6,38.0,28.0,15.0,37,23,13,29.82,29.68,10,2,18,0.00
2013-6-3,80.9,64.0,45.1,36.0,27.7,24.0,58,29,13,29.86,29.71,7,1,16,0.00
2013-6-4,80.6,63.2,42.8,36.0,26.4,20.0,55,29,14,29.90,29.81,10,2,18,0.00
2013-6-5,83.3,65.9,44.6,36.0,27.3,24.0,45,26,13,29.91,29.78,6,1,10,0.00
2013-6-6,86.5,68.6,47.8,32.0,25.8,21.0,50,24,9,29.86,29.72,10,1,16,0.00
2013-6-7,87.7,68.7,47.3,31.0,23.8,13.0,43,22,7,29.80,29.68,9,1,14,0.00
2013-6-8,90.2,71.6,49.2,40.0,27.0,23.0,41,22,10,29.82,29.70,9,2,18,0.00
2013-6-9,90.4,70.7,51.0,37.0,28.8,21.0,45,24,11,29.84,29.75,7,1,10,0.00
2013-6-10,84.5,69.1,47.0,35.0,20.2,9.0,45,19,7,29.87,29.78,10,2,19,0.00
2013-6-11,87.0,68.4,45.6,34.0,24.0,17.0,41,20,9,29.91,29.83,6,1,14,0.00
2013-6-12,88.6,71.3,51.6,37.0,27.3,23.0,37,22,10,29.97,29.83,7,1,15,0.00
2013-6-13,84.7,68.8,49.1,40.0,34.0,28.0,50,29,17,29.99,29.88,7,2,17,0.00
2013-6-14,84.0,68.1,48.3,41.0,35.0,32.0,60,32,17,29.94,29.83,10,1,17,0.00
2013-6-15,79.8,66.9,49.4,44.0,37.1,31.0,55,35,22,30.02,29.89,7,2,16,0.00
2013-6-16,83.6,68.0,50.4,39.0,31.3,25.0,54,29,14,30.05,29.95,7,2,16,0.00
2013-6-17,82.8,66.8,49.4,34.0,25.2,18.0,42,24,9,30.04,29.94,7,1,14,0.00
2013-6-18,83.2,66.0,43.2,29.0,18.9,12.0,42,19,7,30.00,29.88,8,2,16,0.00
2013-6-19,81.1,65.4,42.6,26.0,18.7,14.0,41,18,10,29.88,29.81,11,2,19,0.00
2013-6-20,80.1,65.8,44.4,28.0,22.2,19.0,41,21,10,29.91,29.85,12,2,15,0.00
2013-6-21,79.3,65.2,45.5,32.0,23.1,17.0,48,23,10,29.95,29.88,9,2,15,0.00
2013-6-22,80.8,63.1,43.4,33.0,25.6,20.0,49,26,14,29.98,29.88,10,2,13,0.00
2013-6-23,80.4,63.6,42.8,31.0,21.7,15.0,49,23,9,29.96,29.83,9,2,17,0.00
2013-6-24,77.8,65.0,48.6,34.0,25.0,20.0,38,23,12,29.96,29.85,7,2,15,0.00
2013-6-25,81.4,65.3,45.7,34.0,28.6,25.0,50,28,14,30.06,29.95,6,1,12,0.00
2013-6-26,85.7,67.2,45.5,32.0,23.6,13.0,46,23,8,30.14,30.06,5,1,10,0.00
2013-6-27,91.9,71.2,50.0,40.0,32.5,25.0,48,27,10,30.17,30.03,5,1,10,0.00
2013-6-28,97.0,78.3,56.5,38.0,34.4,29.0,41,23,9,30.05,29.88,7,1,17,0.00
2013-6-29,93.7,77.0,60.0,44.0,36.7,34.0,41,25,13,29.95,29.82,7,1,12,0.00
2013-6-30,91.7,74.7,60.6,62.0,41.8,35.0,84,33,15,29.91,29.80,6,1,12,0.10